Regional Weather Roundup
Issued by NWS Cleveland, OH

Home | Current Version | Previous Version | Graphics & Text | Print | Product List | Glossary On
Versions: 1 2 3 4 5 6 7 8 9 10 11 12 13 14 15 16 17 18 19 20 21 22 23 24 25 26 27 28 29 30 31 32 33 34 35 36 37 38 39 40 41 42 43 44 45 46 47 48 49 50
000
ASUS41 KCLE 270710
RWRCLE
OHIO REGIONAL WEATHER ROUNDUP
NATIONAL WEATHER SERVICE WILMINGTON, OH
300 AM EDT THU APR 27 2017

NOTE: "FAIR" INDICATES FEW OR NO CLOUDS BELOW 12,000 FEET WITH NO
SIGNIFICANT WEATHER AND/OR OBSTRUCTIONS TO VISIBILITY.

OHZ001>008-015>018-024>027-034-035-043-044-270800-
   NORTHWEST OHIO

CITY           SKY/WX    TMP DP  RH WIND       PRES   REMARKS
DEFIANCE       FAIR      68  49  50 S8        29.50F
FINDLAY        FAIR      68  48  48 S14       29.53F
TOLEDO EXPRESS FAIR      67  48  50 S6        29.51F
TOLEDO EXEC    FAIR      67  51  56 S10       29.53F
LIMA           FAIR      68  50  52 S13       29.54S
$$

OHZ009>014-019>023-028>033-038-089-270800-
   NORTHEAST OHIO

CITY           SKY/WX    TMP DP  RH WIND       PRES   REMARKS
CLE-HOPKINS    MOCLDY    68  50  52 S10       29.61S
CLE-LAKEFRONT  FAIR      70  51  51 S14       29.58S
CUY CO. ARPT   NOT AVBL
LORAIN-ELYRIA  FAIR      66  50  56 S9        29.59F
ASHTABULA      FAIR      66  55  67 SE8       29.65F
AKRON-CANTON   FAIR      65  51  60 SE10      29.65S
WOOSTER        FAIR      57  50  77 SE8       29.63F
MANSFIELD      FAIR      69  51  52 S14       29.61F
YOUNGSTOWN     FAIR      63  54  72 SE9       29.66F
$$

OHZ042-051>053-060>062-070>072-077>081-270800-
  SOUTHWEST OHIO

CITY           SKY/WX    TMP DP  RH WIND       PRES   REMARKS
CINC-COVINGTON MOCLDY    67  55  65 S8        29.58F
CINC-LUNKEN    FAIR      64  56  75 S3        29.59S
HAMILTON       FAIR      71  56  58 S6        29.58F
DAYTON         MOCLDY    71  53  52 S16G31    29.57S
WRIGHT-PAT AFB FAIR      71  54  55 S14       29.57F
DAYTON GENERAL FAIR      70  54  56 S14       29.57F
WILMINGTON     FAIR      68  55  63 S14       29.60F
$$

OHZ036-037-039>041-045>050-054>059-063>069-073>076-082>088-270800-
  CENTRAL AND SOUTHEAST OHIO

CITY           SKY/WX    TMP DP  RH WIND       PRES   REMARKS
COLUMBUS       MOCLDY    69  53  56 S7        29.61R
OSU AIRPORT    FAIR      68  53  58 S7        29.60S
BOLTON FIELD   FAIR      64  53  66 S7        29.61F
RICKENBACK AFB FAIR      64  53  66 S5        29.61R
NEWARK         FAIR      66  51  58 S6        29.62S
MARION         FAIR      67  51  56 S12       29.59S
LANCASTER      FAIR      63  53  70 SE5       29.62S
ZANESVILLE     FAIR      68  52  56 S12       29.64R
NEW PHILLY     FAIR      61  54  77 SE7       29.65S
$$



USA.gov is the U.S. government's official web portal to all federal, state and local government web resources and services.